Retour au catalogue

INMARSAT 2-F4

ActifCommunicationsGEO
NORAD 21940·PAYLOAD·🇮🇲 IM

Lancé Apr 15, 1992 depuis Guiana Space Centre

Loading…

TLE

FraisSource: Space-Track

Époque: Sep 13, 2026, 20:59 UTC

1 21940U 92021B   26256.87448252 -.00000040  00000-0  00000+0 0  9995
2 21940  12.2422  15.1714 0008634 179.1501 174.3657  0.97942074 51512

Suivez INMARSAT 2-F4 en temps réel avec AllMySat

Download on the App Store